Regional Weather Roundup
Issued by NWS Albany, NY

Home | Current Version | Previous Version | Text Only | Print | Product List | Glossary On
Versions: 1 2 3 4 5 6 7 8 9 10 11 12 13 14 15 16 17 18 19 20 21 22 23 24 25 26 27 28 29 30 31 32 33 34 35 36 37 38 39 40 41 42 43 44 45 46 47 48 49 50
000
ASUS41 KALY 291210
RWRALY

NEW YORK STATE HOURLY WEATHER ROUNDUP
NATIONAL WEATHER SERVICE ALBANY NY
800 AM EDT WED JUL 29 2015

NOTE: "FAIR" INDICATES FEW OR NO CLOUDS BELOW 12,000 FEET WITH NO
SIGNIFICANT WEATHER AND/OR NO OBSTRUCTIONS TO VISIBILITY.

NYZ032-033-038>043-046>054-057>066-NYZ062>081-291300-
EAST


CITY           SKY/WX    TMP DP  RH WIND       PRES   REMARKS
ALBANY         PTSUNNY   73  65  75 CALM      30.00S
GLENS FALLS    MOSUNNY   71  67  87 CALM      29.99S
POUGHKEEPSIE   SUNNY     73  67  81 CALM      29.99F
NEWBURGH       SUNNY     73  68  83 CALM      30.02R
MONTGOMERY     SUNNY     72  68  87 CALM      30.01S
WHITE PLAINS   SUNNY     78  68  71 NW7       29.99R
ISLIP          PTSUNNY   79  71  76 N6        29.97R
NEW YORK CITY  PTSUNNY   81  65  58 NW3       29.97S
CENTRAL PARK   SUNNY     80  65  59 CALM      30.01R
$$

NYZ005>009-017-018-044>046-055-056-291300-
CENTRAL


CITY           SKY/WX    TMP DP  RH WIND       PRES   REMARKS
FULTON         MOSUNNY   70  64  81 SE3       30.00R
SYRACUSE       CLOUDY    69  62  78 SE3       30.00R
ROME           MOSUNNY   68  63  84 SE5       30.03R
ELMIRA         FOG       65  65 100 CALM      30.03S VSB 1/8
BINGHAMTON     MOSUNNY   69  65  86 CALM      30.06S
MONTICELLO     MOSUNNY   68  64  88 CALM      30.07S
$$

NYZ026>034-041>043-291300-
NORTH


CITY           SKY/WX    TMP DP  RH WIND       PRES   REMARKS
WATERTOWN      PTSUNNY   73  63  70 S5        29.98R
FORT DRUM      NOT AVBL
MASSENA        MOSUNNY   73  61  65 SW7       29.95S
SARANAC LAKE   MOSUNNY   65  63  93 CALM      30.03S
PLATTSBURGH    MOSUNNY   73  68  84 SE9       29.95R
$$

NYZ001>004-010>016-019>021-291300-
WEST


CITY           SKY/WX    TMP DP  RH WIND       PRES   REMARKS
NIAGARA FALLS  CLOUDY    69  64  84 CALM      29.98R
BUFFALO        PTSUNNY   72  62  71 S5        29.99S
DUNKIRK        MOSUNNY   70  63  78 S3        29.99S
JAMESTOWN      MOSUNNY   66  61  82 S5        30.05F
WELLSVILLE     SUNNY     66  62  87 CALM      30.10R
ROCHESTER      CLOUDY    71  65  81 SW8       29.99S
PENN YAN       PTSUNNY   71  67  87 VRB5      30.02R
$$

             KEY
       WCI = WIND CHILL INDEX
       VSB = VISIBILITY
       HX  = HEAT INDEX
$$


USA.gov is the U.S. government's official web portal to all federal, state and local government web resources and services.